Weather in Novyye Shimkusy

Russia / Chuvash Republic     55°09′24″N   47°45′58″E
temp.,
°C
wind,
m/s
gust,
m/s
humid.,
%
clouds,
%
prec.,
mm/h
press.,
hPa
HPBL,
m
24 may, tue
tue2400:00+1sw3989100 0.0 1003266
03:00+1sw389199 0.0 1003193
06:00+4ssw5980100 0.0 1002430
09:00+8sw71167100 0.1 10031460
12:00+8w61061100 0.1 10041539
15:00+8w7966100 0.3 10051312
18:00+7w4566100 0.0 1006990
21:00+4sw238899 0.1 1007150
25 may, wed
wed2500:00+4wnw248899 0.0 1008221
03:00+4nw238997 0.1 1008382
06:00+3nw347752 0.0 1009279
09:00+7nw555983 0.0 10091436
12:00+8nw6760100 0.8 10101416
15:00+9nw675797 1.6 10111658
18:00+8wnw476795 0.3 10111138
21:00+6w6118261 0.6 1012777
26 may, thu
thu2600:00+3w3895100 0.0 1013273
03:00+2wsw37967 0.0 1014162
06:00+5wsw4781100 0.0 1014266
09:00+9wsw5863100 0.0 10131293
12:00+11sw695899 0.5 10131613
15:00+12wsw685995 0.8 10121524
18:00+11sw477445 0.4 1011942
21:00+7s35905 0.5 101175
27 may, fri
fri2700:00+8sse3790100 0.0 1009124
03:00+8sse4997100 1.4 1007254
06:00+8sse71496100 2.8 1005525
09:00+9sse91694100 6.2 1002759
12:00+10sse71294100 1.1 1001631
15:00+11sw71091100 1.6 1001807
18:00+10wsw61293100 0.8 1002701
21:00+10wsw5129294 0.8 1005450
28 may, sat
sat2800:00+8sw49965 0.1 1006196
03:00+7sw4997100 0.1 1007196
06:00+10ssw4892100 0.0 1008253
09:00+14ssw71173100 0.0 1007818
12:00+17s91264100 0.0 10071223
15:00+18ssw101769100 0.1 10051565
18:00+13w61094100 1.4 1008588
21:00+10sw4995100 1.4 1010258